Regional Weather Roundup
Issued by NWS

Home | Current Version | Previous Version | Text Only | Print | Product List | Glossary Off
Versions: 1 2 3 4 5 6 7 8 9 10 11 12 13 14 15 16 17 18 19 20 21 22 23 24 25 26 27 28 29 30 31 32 33 34 35 36 37 38 39 40 41 42 43 44 45 46 47 48 49 50

000
ASUS43 KMKX 231121
RWRWI

WISCONSIN REGIONAL WEATHER ROUNDUP
NATIONAL WEATHER SERVICE MILWAUKEE/SULLIVAN WI
500 AM CST THU NOV 23 2017

NOTE: "FAIR" INDICATES FEW OR NO CLOUDS BELOW 12,000 FEET WITH NO
SIGNIFICANT WEATHER AND/OR OBSTRUCTIONS TO VISIBILITY.

WIZ001-002-006>008-014>016-023>028-231200-
NORTHWEST WISCONSIN

CITY           SKY/WX    TMP DP  RH WIND       PRES   REMARKS
SUPERIOR ARPT  CLOUDY    19  18  95 SW5       29.94R WCI  13
ASHLAND        CLOUDY    26  19  74 S5        29.91F WCI  20
HAYWARD        CLOUDY    26  19  74 CALM      29.90F
SIREN          CLOUDY    21  18  86 CALM      29.92R
CUMBERLAND     CLOUDY    23  19  86 SE5       29.91S WCI  17
RICE LAKE      CLOUDY    25  20  80 CALM      29.94R
CHETEK         CLOUDY    20  18  92 CALM      29.92S
LADYSMITH      CLOUDY    27  21  79 CALM      29.93S
EAU CLAIRE     CLOUDY    19  16  88 CALM      29.92S
MENOMONIE      CLOUDY    22  17  81 CALM      29.93S
NEW RICHMOND   CLOUDY    20  16  84 CALM      29.92R
OSCEOLA        CLOUDY    21  16  83 CALM      29.96R
$$

WIZ003>005-009-010-017-018-231200-
NORTH CENTRAL WISCONSIN

CITY           SKY/WX    TMP DP  RH WIND       PRES   REMARKS
MANITOWISH WTR CLOUDY    24  20  87 SW5       29.89S WCI  18
ARBOR VITAE    CLOUDY    25  21  86 SW5       29.89S WCI  19
WOODRUFF       CLOUDY    25  21  86 SW5       29.89S WCI  19
RHINELANDER    CLOUDY    25  21  85 SW6       29.90F WCI  18
EAGLE RIVER    CLOUDY    24  19  80 W6        29.88F WCI  17
LAND O LAKES   CLOUDY    25  20  83 CALM      29.90S
PHILLIPS       CLOUDY    25  20  82 S3        29.89F
TOMAHAWK       CLOUDY    24  20  84 CALM      29.91F
MEDFORD        CLOUDY    17  15  92 CALM      29.90F
MERRILL        PTCLDY    19  18  95 CALM      29.93S
$$

WIZ029-030-035-036-043>047-231200-
CENTRAL WISCONSIN

CITY           SKY/WX    TMP DP  RH WIND       PRES   REMARKS
WAUSAU         CLOUDY    24  19  81 SE3       29.93S
MOSINEE        CLOUDY    23  19  86 CALM      29.95R
MARSHFIELD     CLOUDY    24  15  68 CALM      29.91F
STEVENS POINT  CLEAR     21  18  86 CALM      29.95F
WAUPACA        CLEAR     28  22  76 CALM      29.96F
WAUTOMA        CLOUDY    29  20  69 S5        29.96F WCI  24
WISC RAPIDS    CLOUDY    26  17  68 S3        29.95F
CAMP DOUGLAS   CLOUDY    27  18  67 CALM      29.94F
$$

WIZ011>013-019>022-031-037>040-048>050-231200-
NORTHEAST WISCONSIN

CITY           SKY/WX    TMP DP  RH WIND       PRES   REMARKS
ANTIGO         CLOUDY    24  19  84 SW3       29.93S
SHAWANO        CLOUDY    29  23  77 CALM      29.96F
OCONTO         CLOUDY    29  22  76 CALM      29.97F
STURGEON BAY   CLOUDY    29  24  82 S6        29.98F WCI  23
GREEN BAY      CLOUDY    31  23  72 SW5       29.98F WCI  26
MANITOWOC      CLOUDY    31  22  69 S5        30.00  WCI  26
APPLETON       MOCLDY    28  19  69 S6        29.95F WCI  22
CLINTONVILLE   CLOUDY    28  21  74 CALM      29.96F
OSHKOSH        CLOUDY    29  21  72 S7        29.97F WCI  22
$$

WIZ032>034-041-042-053>061-231200-
SOUTHWEST WISCONSIN

CITY           SKY/WX    TMP DP  RH WIND       PRES   REMARKS
LA CROSSE      CLOUDY    30  20  66 SE5       29.95F WCI  25
SPARTA         CLEAR     24  19  81 CALM      29.95F
VIROQUA        CLOUDY    27  19  72 S5        29.93S WCI  22
BOSCOBEL       CLOUDY    30  19  63 S3        29.97F
PRAIRIE DU CHI CLOUDY    31  17  55 CALM      29.96F
PLATTEVILLE    PTCLDY    27  20  75 S7        29.99R WCI  20
$$

WIZ056-057-062-063-064-067-068-231200-
SOUTH CENTRAL WISCONSIN

CITY           SKY/WX    TMP DP  RH WIND       PRES   REMARKS
REEDSBURG      PTCLDY    30  18  60 S6        29.95F WCI  24
BARABOO/DELLS  CLOUDY    31  17  55 SW8       29.95F WCI  24
LONE ROCK      CLOUDY    33  20  58 S3        29.98F
MINERAL POINT  CLOUDY    32  23  69 S3        29.97R
MADISON        CLOUDY    32  19  58 SW7       29.99R WCI  26
MIDDLETON      MOCLDY    32  20  61 SW6       29.99S WCI  26
WATERTOWN      CLOUDY    32  20  61 SW8       29.99S WCI  25
MONROE         CLOUDY    30  21  69 S9        29.99R WCI  22
JANESVILLE     CLOUDY    32  21  64 S5        30.01R WCI  27
$$

WIZ051-052-058>065-066-070>072-231200-
SOUTHEAST WISCONSIN

CITY           SKY/WX    TMP DP  RH WIND       PRES   REMARKS
MILWAUKEE      CLOUDY    34  20  56 SW9       30.02S WCI  27
WAUKESHA       CLOUDY    32  19  59 SW9       30.01S WCI  24
MILWAUKEE/TIMM CLOUDY    32  18  55 SW7       30.03R WCI  26
RACINE         CLOUDY    33  20  58 SW9       30.04S WCI  25
BURLINGTON     CLOUDY    34  26  71 SW13      30.02R WCI  25
KENOSHA        CLOUDY    33  19  56 SW9       30.02F WCI  25
FOND DU LAC    CLOUDY    32  19  58 SW9       29.98S WCI  24
SHEBOYGAN      CLOUDY    31  21  66 S6        29.99F WCI  25
WEST BEND      CLOUDY    32  19  59 SW6       30.00S WCI  26
JUNEAU         CLOUDY    31  20  61 S7        30.00S WCI  25
$$

LSZ147-162-231200-
LAKE SUPERIOR

STATION/POSITION TIME  TEMP    WIND        PRES    WAVE
                       AIR SEA DIR/SP/G            HT/PER
                 (UTC) (F)     (DEG/KT/KT) (MB)    (FT/S)
DEVILS ISLAND    1100   30     260/ 15/ 18 1013.5F
SAXON HARBOR     1040   28     190/  7/ 11 1012.9F
$$

LMZ867-665-643>646-231200-
LAKE MICHIGAN

STATION/POSITION TIME  TEMP    WIND        PRES    WAVE
                       AIR SEA DIR/SP/G            HT/PER
                 (UTC) (F)     (DEG/KT/KT) (MB)    (FT/S)
N MID LAKE BUOY  1050   33 47  240/ 16/ 21 1015.7F   4/ 6
NORTHPORT PIER   1059   31     240/  4/ 11 1014.6F
KEWAUNEE LAKESHO 1054   30     220/  4/  6 1014.7F
SHEBOYGAN LAKESH 1100   33     210/ 10/ 11 1016.5F
PORT WASHINGTON  1040   33     220/  3/  8 1017.6S
MILWAUKEE LAKESH 1100   33     220/ 10/ 11   N/A
S MID LAKE BUOY  1050   37 47  250/ 17/ 19 1017.9F   4/ 5
KENOSHA   LAKESH 1100   33     210/  7/ 11 1016.9
$$

TC  - TEMPERATURE IN CELSIUS
VSB - VISIBILITY IN STATUTE MILES
WCI - WIND CHILL INDEX
HX  - HEAT INDEX





USA.gov is the U.S. government's official web portal to all federal, state and local government web resources and services.